• In Lithuania
  • List of Countries
  • For 7 days
  • Water Temperature
  • Satellite Maps
  • Weather Map
  • Weather Widgets
  • user-avatar
    Login

    Hourly Weather Maracay

    Today, 15 August, Wednesday

    Time Temperature Precipitation Wind Pressure Humidity
    00:00 +23°C° 0.2 mm 1 mps 711 mmHg 94%
    01:00 +21°C° 0.2 mm 2 mps 711 mmHg 93%
    02:00 +21°C° 0.3 mm 2 mps 711 mmHg 93%
    03:00 +21°C° 0.3 mm 2 mps 711 mmHg 92%
    04:00 +21°C° 0.3 mm 2 mps 711 mmHg 92%
    05:00 +23°C° 0.2 mm 1 mps 712 mmHg 91%
    06:00 +23°C° 0.2 mm 1 mps 712 mmHg 91%
    07:00 +24°C° 0.2 mm 1 mps 712 mmHg 90%
    08:00 +26°C° 0.1 mm 1 mps 713 mmHg 83%
    09:00 +28°C° 0.1 mm 1 mps 713 mmHg 75%
    10:00 +30°C° 0.1 mm 1 mps 714 mmHg 67%
    11:00 +29°C° 0.7 mm 1 mps 713 mmHg 70%
    12:00 +29°C° 0.7 mm 2 mps 713 mmHg 74%
    13:00 +29°C° 0.7 mm 2 mps 712 mmHg 77%
    14:00 +28°C° 1.2 mm 2 mps 712 mmHg 78%
    15:00 +28°C° 1.2 mm 2 mps 711 mmHg 79%
    16:00 +28°C° 1.2 mm 1 mps 711 mmHg 80%
    17:00 +27°C° 0.2 mm 1 mps 711 mmHg 84%
    18:00 +26°C° 0.2 mm 1 mps 711 mmHg 87%
    19:00 +24°C° 0.2 mm 1 mps 712 mmHg 91%
    20:00 +24°C° 0.2 mm 1 mps 712 mmHg 91%
    21:00 +24°C° 0.2 mm 1 mps 713 mmHg 91%
    22:00 +24°C° 0.2 mm 1 mps 713 mmHg 92%
    23:00 +23°C° 0.1 mm 1 mps 713 mmHg 92%

    Tomorrow, 16 August, Thursday

    Time Temperature Precipitation Wind Pressure Humidity
    00:00 +23°C° 0.1 mm 1 mps 712 mmHg 92%
    01:00 +23°C° 0.1 mm 1 mps 712 mmHg 93%
    02:00 +23°C° 0.1 mm 1 mps 712 mmHg 93%
    03:00 +23°C° 0.1 mm 1 mps 712 mmHg 93%
    04:00 +22°C° 0.1 mm 1 mps 712 mmHg 93%
    05:00 +23°C° 0 mm 1 mps 713 mmHg 89%
    06:00 +24°C° 0 mm 1 mps 713 mmHg 86%
    07:00 +25°C° 0 mm 1 mps 714 mmHg 83%
    08:00 +27°C° 0 mm 1 mps 714 mmHg 74%
    09:00 +29°C° 0 mm 2 mps 715 mmHg 66%
    10:00 +31°C° 0 mm 2 mps 715 mmHg 58%
    11:00 +31°C° 0.1 mm 2 mps 714 mmHg 59%
    12:00 +31°C° 0.1 mm 2 mps 714 mmHg 61%
    13:00 +31°C° 0.1 mm 3 mps 713 mmHg 62%
    14:00 +30°C° 0.4 mm 2 mps 713 mmHg 66%
    15:00 +29°C° 0.4 mm 2 mps 712 mmHg 71%
    16:00 +29°C° 0.4 mm 2 mps 712 mmHg 75%
    17:00 +27°C° 0 mm 2 mps 712 mmHg 81%
    18:00 +26°C° 0 mm 1 mps 712 mmHg 86%
    19:00 +25°C° 0 mm 1 mps 713 mmHg 92%
    20:00 +24°C° 0 mm 1 mps 713 mmHg 93%
    21:00 +24°C° 0 mm 1 mps 714 mmHg 93%
    22:00 +24°C° 0 mm 1 mps 714 mmHg 94%
    23:00 +24°C° 0 mm 1 mps 714 mmHg 94%

    Day after tomorrow, 17 August, Friday

    Time Temperature Precipitation Wind Pressure Humidity
    00:00 +23°C° 0 mm 1 mps 713 mmHg 94%
    01:00 +23°C° 0 mm 1 mps 713 mmHg 95%
    02:00 +23°C° 0 mm 1 mps 713 mmHg 94%
    03:00 +23°C° 0 mm 1 mps 713 mmHg 93%
    04:00 +22°C° 0 mm 1 mps 713 mmHg 93%
    05:00 +23°C° 0 mm 1 mps 713 mmHg 88%
    06:00 +24°C° 0 mm 1 mps 714 mmHg 83%
    07:00 +25°C° 0 mm 1 mps 714 mmHg 77%
    08:00 +27°C° 0 mm 1 mps 714 mmHg 70%
    09:00 +29°C° 0 mm 2 mps 715 mmHg 62%
    10:00 +31°C° 0 mm 2 mps 715 mmHg 54%
    11:00 +31°C° 0 mm 2 mps 714 mmHg 54%
    12:00 +33°C° 0 mm 3 mps 713 mmHg 54%
    13:00 +33°C° 0 mm 3 mps 713 mmHg 54%
    14:00 +31°C° 0.1 mm 3 mps 712 mmHg 59%
    15:00 +30°C° 0.1 mm 3 mps 712 mmHg 64%
    16:00 +30°C° 0.1 mm 3 mps 711 mmHg 69%
    17:00 +28°C° 0.1 mm 2 mps 712 mmHg 76%
    18:00 +26°C° 0.1 mm 2 mps 712 mmHg 83%
    19:00 +25°C° 0.1 mm 1 mps 712 mmHg 90%
    20:00 +24°C° 0 mm 1 mps 713 mmHg 91%
    21:00 +24°C° 0 mm 1 mps 713 mmHg 91%
    22:00 +24°C° 0 mm 2 mps 714 mmHg 92%
    23:00 +23°C° 0 mm 1 mps 713 mmHg 92%

    18 August, Saturday

    Time Temperature Precipitation Wind Pressure Humidity
    00:00 +23°C° 0 mm 1 mps 713 mmHg 92%
    01:00 +23°C° 0 mm 1 mps 712 mmHg 92%
    02:00 +23°C° 0 mm 1 mps 712 mmHg 91%
    03:00 +23°C° 0 mm 1 mps 712 mmHg 90%
    04:00 +23°C° 0 mm 1 mps 712 mmHg 90%
    05:00 +24°C° 0 mm 1 mps 712 mmHg 85%
    06:00 +25°C° 0 mm 1 mps 713 mmHg 81%
    07:00 +26°C° 0 mm 1 mps 713 mmHg 77%
    08:00 +28°C° 0 mm 1 mps 714 mmHg 72%
    09:00 +29°C° 0 mm 2 mps 714 mmHg 66%
    10:00 +31°C° 0 mm 2 mps 714 mmHg 60%
    11:00 +31°C° 0.4 mm 2 mps 713 mmHg 63%
    12:00 +30°C° 0.4 mm 2 mps 712 mmHg 66%
    13:00 +30°C° 0.4 mm 3 mps 711 mmHg 69%
    14:00 +30°C° 1 mm 2 mps 711 mmHg 72%
    15:00 +29°C° 1 mm 2 mps 711 mmHg 75%
    16:00 +28°C° 1 mm 2 mps 710 mmHg 78%
    17:00 +27°C° 0.7 mm 2 mps 711 mmHg 83%
    18:00 +26°C° 0.7 mm 2 mps 711 mmHg 88%
    19:00 +24°C° 0.7 mm 2 mps 711 mmHg 93%
    20:00 +24°C° 0.3 mm 1 mps 712 mmHg 93%
    21:00 +24°C° 0.3 mm 1 mps 712 mmHg 93%
    22:00 +24°C° 0.3 mm 1 mps 712 mmHg 94%
    23:00 +24°C° 0.3 mm 1 mps 712 mmHg 93%

    19 August, Sunday

    Time Temperature Precipitation Wind Pressure Humidity
    00:00 +23°C° 0.3 mm 1 mps 711 mmHg 92%
    01:00 +23°C° 0.3 mm 1 mps 711 mmHg 92%
    02:00 +23°C° 0 mm 1 mps 711 mmHg 90%
    03:00 +23°C° 0 mm 1 mps 711 mmHg 89%
    04:00 +23°C° 0 mm 1 mps 711 mmHg 88%
    05:00 +24°C° 0.4 mm 1 mps 712 mmHg 87%
    06:00 +24°C° 0.4 mm 1 mps 712 mmHg 85%
    07:00 +25°C° 0.4 mm 1 mps 713 mmHg 84%
    08:00 +26°C° 0.7 mm 1 mps 713 mmHg 81%
    09:00 +28°C° 0.7 mm 1 mps 713 mmHg 79%
    10:00 +29°C° 0.7 mm 2 mps 713 mmHg 76%
    11:00 +28°C° 1.4 mm 2 mps 713 mmHg 79%
    12:00 +28°C° 1.4 mm 2 mps 712 mmHg 83%
    13:00 +28°C° 1.4 mm 2 mps 712 mmHg 86%
    14:00 +27°C° 1.6 mm 2 mps 711 mmHg 87%
    15:00 +27°C° 1.6 mm 1 mps 711 mmHg 89%
    16:00 +26°C° 1.6 mm 1 mps 711 mmHg 90%
    17:00 +25°C° 0.4 mm 1 mps 711 mmHg 91%
    18:00 +25°C° 0.4 mm 1 mps 712 mmHg 92%
    19:00 +24°C° 0.4 mm 1 mps 712 mmHg 93%
    20:00 +24°C° 0 mm 1 mps 712 mmHg 93%
    21:00 +23°C° 0 mm 1 mps 712 mmHg 92%
    22:00 +23°C° 0 mm 1 mps 713 mmHg 92%
    23:00 +23°C° 0 mm 1 mps 712 mmHg 91%

    20 August, Monday

    Time Temperature Precipitation Wind Pressure Humidity
    00:00 +23°C° 0 mm 1 mps 712 mmHg 90%
    01:00 +22°C° 0 mm 1 mps 711 mmHg 89%
    02:00 +22°C° 0.1 mm 1 mps 712 mmHg 89%
    03:00 +22°C° 0.1 mm 1 mps 712 mmHg 89%
    04:00 +21°C° 0.1 mm 2 mps 712 mmHg 89%
    05:00 +23°C° 0.2 mm 2 mps 712 mmHg 87%
    06:00 +24°C° 0.2 mm 2 mps 713 mmHg 86%
    07:00 +25°C° 0.2 mm 2 mps 714 mmHg 85%
    08:00 +26°C° 0.2 mm 2 mps 714 mmHg 79%
    09:00 +28°C° 0.2 mm 2 mps 714 mmHg 74%
    10:00 +30°C° 0.2 mm 2 mps 714 mmHg 68%
    11:00 +29°C° 0.7 mm 2 mps 713 mmHg 71%
    12:00 +29°C° 0.7 mm 2 mps 713 mmHg 75%
    13:00 +29°C° 0.7 mm 2 mps 712 mmHg 78%
    14:00 +29°C° 0.4 mm 2 mps 712 mmHg 76%
    15:00 +29°C° 0.4 mm 2 mps 712 mmHg 74%
    16:00 +29°C° 0.4 mm 2 mps 712 mmHg 72%
    17:00 +27°C° 0.1 mm 2 mps 712 mmHg 79%
    18:00 +26°C° 0.1 mm 2 mps 712 mmHg 86%
    19:00 +24°C° 0.1 mm 1 mps 712 mmHg 93%
    20:00 +24°C° 0 mm 1 mps 713 mmHg 93%
    21:00 +24°C° 0 mm 1 mps 713 mmHg 93%
    22:00 +23°C° 0 mm 1 mps 714 mmHg 93%
    23:00 +23°C° 0 mm 1 mps 713 mmHg 92%
    Show more